Location: ?????
(42.2640°N, 43.4211°E)
Time: 14:21:46
(UTC+00:00)

SL-16 R/B - Pass Details

Date: 07 August 2020
Orbit: 985 x 1007 km, 99.5° (Epoch: 19 September)

Event Time Altitude Azimuth Distance (km) Brightness Sun altitude
Exits shadow 00:28:36 16° 266° (W) 2,398 4.1 -16.0°
Maximum altitude 00:29:00 16° 271° (W) 2,393 4.1 -15.9°
Drops below altitude 10° 00:32:36 10° 306° (NW) 2,788 4.7 -15.4°
Sets 00:36:18 0° 328° (NNW) 3,742 5.7 -14.9°
